{"data":{"norad_id":64101,"epoch":"2026-05-25T02:29:07.168416Z","epoch_age_seconds":59906,"freshness":"FRESH","line1":"1 64101U 25110F   26145.10355519  .00017676  00000+0  57982-3 0  9998","line2":"2 64101  53.1588  31.7006 0001148  73.9254 286.1873 15.31710355 57586","mean_motion":15.31710355,"eccentricity":0.0001148,"inclination_deg":53.1588,"raan_deg":31.7006,"arg_perigee_deg":73.9254,"mean_anomaly_deg":286.1873,"bstar":0.00057982,"rev_number":5758,"period_min":94.012552392779,"perigee_km":469.92288014792,"apogee_km":471.49537521883,"semimajor_km":6848.8461276834,"source":"CELESTRAK","updated_at":"2026-05-25T13:38:20.264327Z"}}